DW6198 Weather Reports


Display with metric or nautical units.
time (UTC)temp
F
wind
direction
speed
MPH
gust
MPH
rain 1hr
in
rain 24hr
in
rain mn
in
humidity
%
barometer
mb
20181113160246 47 79 0.0 2.0 0.00 0.00 0.00 94 1026.7
20181113154634 47 129 1.0 2.0 0.00 0.00 0.00 94 1026.2
20181113153210 47 105 0.0 4.0 0.00 0.00 0.00 94 1026.3
20181113151620 47 74 0.0 2.0 0.00 0.00 0.00 94 1026.1
20181113150128 47 129 0.0 0.0 0.00 0.00 0.00 94 1026.1
20181113144617 48 187 0.0 1.0 0.00 0.00 0.00 94 1025.9
20181113070012 50 120 2.0 6.0 0.00 0.00 0.00 91 1025.2
20181113064529 50 128 0.0 8.0 0.00 0.00 0.00 91 1025.0
20181113063019 50 112 0.0 5.0 0.00 0.00 0.00 91 1024.9
20181113060027 50 154 2.0 7.0 0.00 0.00 0.00 91 1025.2
20181113054513 50 129 0.0 4.0 0.00 0.00 0.00 91 1025.0
20181113053013 50 133 1.0 3.0 0.00 0.00 0.00 92 1025.0
20181113051508 49 139 0.0 1.0 0.00 0.00 0.00 94 1025.0
20181113050002 49 287 0.0 1.0 0.00 0.00 0.00 93 1025.0
20181113044613 49 287 0.0 2.0 0.00 0.00 0.00 94 1025.0
20181113044501 49 233 0.0 1.0 0.00 0.00 0.00 94 1024.9
20181113043152 48 207 0.0 1.0 0.00 0.00 0.00 94 1025.0
20181113041714 48 275 0.0 1.0 0.00 0.00 0.00 93 1025.0
20181113040135 49 249 0.0 1.0 0.00 0.00 0.00 93 1025.0
20181113034713 49 245 0.0 2.0 0.00 0.00 0.00 92 1025.1
20181113033244 49 142 0.0 1.0 0.00 0.00 0.00 92 1025.1
20181113031639 49 176 1.0 3.0 0.00 0.00 0.00 92 1025.3
20181113030203 49 15 0.0 3.0 0.00 0.00 0.00 92 1025.5
20181113024646 49 201 0.0 3.0 0.00 0.00 0.00 92 1025.5
20181113023216 49 243 0.0 2.0 0.00 0.00 0.00 91 1025.4
20181113021624 49 336 0.0 3.0 0.00 0.00 0.00 92 1025.6
20181113020119 49 129 0.0 2.0 0.00 0.00 0.00 92 1025.8
20181113014636 48 20 0.0 1.0 0.00 0.00 0.00 92 1025.8
20181113013125 49 30 0.0 2.0 0.00 0.00 0.00 91 1025.7
20181113011642 49 36 0.0 4.0 0.00 0.00 0.00 90 1025.7
20181113010058 49 347 0.0 4.0 0.00 0.00 0.00 90 1025.7
20181113004613 50 95 0.0 3.0 0.00 0.00 0.00 90 1025.8
20181113003114 50 146 0.0 3.0 0.00 0.00 0.00 89 1025.7
20181113001639 50 141 0.0 4.0 0.00 0.00 0.00 89 1025.6
20181113000120 51 107 1.0 3.0 0.00 0.00 0.00 89 1025.6
20181112234638 51 129 1.0 6.0 0.00 0.00 0.00 88 1025.9
20181112233102 51 262 1.0 7.0 0.00 0.00 0.00 88 1025.8
20181112231620 51 132 1.0 4.0 0.00 0.00 0.00 88 1025.8
20181112230050 51 132 0.0 3.0 0.00 0.00 0.00 88 1025.8
20181112224556 51 138 0.0 3.0 0.00 0.00 0.00 88 1025.9
20181112223119 51 44 2.0 6.0 0.00 0.00 0.00 87 1025.9
20181112221552 51 135 2.0 4.0 0.00 0.00 0.00 87 1026.0
20181112220041 51 117 1.0 4.0 0.00 0.00 0.00 87 1026.0
20181112214554 51 157 2.0 5.0 0.00 0.00 0.00 87 1025.9
20181112213051 51 54 1.0 6.0 0.00 0.00 0.00 87 1025.9
20181112211557 51 129 1.0 4.0 0.00 0.00 0.00 88 1025.8
20181112210035 51 150 1.0 4.0 0.00 0.00 0.00 87 1025.8
20181112204540 51 240 1.0 3.0 0.00 0.00 0.00 88 1025.9
20181112203029 51 122 1.0 5.0 0.00 0.00 0.00 88 1026.0
20181112201605 51 142 1.0 3.0 0.00 0.00 0.00 88 1025.8
20181112200108 51 356 0.0 5.0 0.00 0.00 0.00 88 1025.7
20181112194553 51 162 0.0 4.0 0.00 0.00 0.00 87 1025.8
20181112193020 51 212 1.0 2.0 0.00 0.00 0.00 88 1025.7
20181112191604 51 108 2.0 6.0 0.00 0.00 0.00 88 1025.7
20181112190029 51 129 2.0 5.0 0.00 0.00 0.00 88 1025.8
20181112184538 50 172 2.0 5.0 0.00 0.00 0.00 88 1025.7
20181112183023 50 34 1.0 4.0 0.00 0.00 0.00 88 1025.6
20181112181520 50 102 1.0 6.0 0.00 0.00 0.00 88 1025.7
20181112180024 50 82 0.0 7.0 0.00 0.00 0.00 88 1025.6
20181112174537 50 135 1.0 7.0 0.00 0.00 0.00 88 1025.5
20181112173024 49 39 0.0 6.0 0.00 0.00 0.00 89 1025.5
20181112171515 49 309 1.0 11.0 0.00 0.00 0.00 89 1025.5
20181112170027 49 119 2.0 11.0 0.00 0.00 0.00 90 1025.5
20181112164526 49 184 4.0 9.0 0.00 0.00 0.00 89 1025.5
20181112163037 49 135 3.0 10.0 0.00 0.00 0.00 90 1025.4
20181112161512 49 11 1.0 7.0 0.00 0.00 0.00 89 1025.3